Hourly Data Report for November 08, 2019

All times are specified in Local Standard Time (LST). Add 1 hour to adjust for Daylight Saving Time where and when it is observed.

SEPT-ILES
QUEBEC
Current Station Operator: ECCC - MSC

50°13'00.000" N
66°15'00.000" W
52.60 m
7047914
71279
XZV

Download Data

Hourly Data (November 2019)
Hourly Data Report for November 8, 2019
TIME Temp Definition
°C
Dew Point Definition
°C
Rel Hum Definition
%
Wind Dir Definition
10's deg

Wind Spd Definition
km/h
Visibility Definition
km
Stn Press Definition
kPa
Hmdx Definition


Wind Chill Definition


Weather Definition


00:00 -11.1 -13.2 85 31 4   100.91   -14 LegendNANA
01:00 -11.7 -13.7 85 30 3   100.90   -14 LegendNANA
02:00 -12.2 -14.1 85 32 5   100.88   -15 LegendNANA
03:00 -11.8 -13.5 88 33 5   100.84   -15 LegendNANA
04:00 -11.2 -13.1 86 34 5   100.82   -14 LegendNANA
05:00 -11.7 -13.8 84 36 2   100.76   -13 LegendNANA
06:00 -9.3 -10.5 91 2 5   100.74   -12 LegendNANA
07:00 -7.6 -11.0 76 33 7   100.74   -11 LegendNANA
08:00 -4.8 -10.8 63 34 8   100.70   -8 LegendNANA
09:00 -2.9 -11.4 52 36 12   100.63   -7 LegendNANA
10:00 -2.3 -13.6 41 1 17   100.57   -8 LegendNANA
11:00 -1.1 -14.0 37 2 17   100.52   -6 LegendNANA
12:00 -0.7 -15.2 32 35 19   100.44   -6 LegendNANA
13:00 -0.3 -14.4 34 35 20   100.38   -6 LegendNANA
14:00 -0.4 -13.8 36 36 18   100.34   -5 LegendNANA
15:00 -1.3 -12.7 42 33 16   100.33   -6 LegendNANA
16:00 -2.2 -12.5 45 33 22   100.36   -8 LegendNANA
17:00 -2.9 -12.0 49 33 14   100.36   -8 LegendNANA
18:00 -3.7 -12.0 52 32 12   100.40   -8 LegendNANA
19:00 -3.6 -10.6 58 33 13   100.42   -8 LegendNANA
20:00 -4.1 -10.7 60 33 11   100.43   -9 LegendNANA
21:00 -4.5 -11.7 57 32 12   100.41   -9 LegendNANA
22:00 -4.7 -12.8 53 31 18   100.39   -11 LegendNANA
23:00 -5.0 -13.2 53 32 16   100.41   -11 LegendNANA

Notes on Data Quality.

Legend

  • E = Estimated
  • M = Missing
  • NA = Not Available
Date modified: